Location: Unspecified
(0.0000°N, 0.0000°E)
Time: 11:36:26
(UTC+00:00)

Explorer 7 - All Passes

Search period start: 29 May 2016 00:00
Search period end: 08 June 2016 00:00
Orbit: 487 x 687 km, 50.3° (Epoch: 28 May)

Date Brightness Start Highest point End Pass type
(mag) Time Alt. Az. Time Alt. Az. Time Alt. Az.
29 May - 07:47:03 10° N 07:50:45 21° NE 07:54:29 10° ESE daylight
29 May - 09:26:58 10° WNW 09:31:19 31° SW 09:35:41 10° S daylight
29 May - 19:51:13 10° S 19:54:16 22° SE 19:57:16 10° ENE night (unlit)
29 May - 21:32:23 10° W 21:34:38 15° NW 21:36:53 10° NNW night (unlit)
30 May - 07:52:36 10° NNW 07:57:11 43° NE 08:01:52 10° SE daylight
30 May - 09:34:49 10° W 09:37:48 16° SW 09:40:48 10° SSW daylight
30 May - 19:56:58 10° SSW 20:00:43 55° SE 20:04:23 10° NE night (unlit)
31 May - 07:58:45 10° NW 08:03:37 89° NE 08:08:35 10° SE daylight
31 May - 20:03:24 10° SW 20:07:09 56° NW 20:10:49 10° NNE visible
01 Jun - 06:26:47 10° NNE 06:29:30 15° NE 06:32:17 10° E daylight
01 Jun - 08:05:26 10° NW 08:10:03 44° SW 08:14:47 10° SSE daylight
01 Jun - 18:30:47 10° SSE 18:33:10 16° SE 18:35:30 10° E visible
01 Jun - 20:10:31 10° WSW 20:13:34 23° NW 20:16:35 10° N visible
02 Jun - 06:31:48 10° N 06:35:57 30° NE 06:40:14 10° ESE daylight
02 Jun - 08:12:46 10° WNW 08:16:31 22° SW 08:20:21 10° S daylight
02 Jun - 18:36:03 10° SSW 18:39:39 35° SE 18:43:08 10° ENE visible
03 Jun - 06:37:40 10° NNW 06:42:22 62° NE 06:47:15 10° SE daylight
03 Jun - 08:21:43 10° WSW 08:23:04 11° SW 08:24:24 10° SW daylight
03 Jun - 18:42:11 10° SW 18:46:06 90° NE 18:49:52 10° NE visible
04 Jun - 06:44:05 10° NW 06:48:48 63° SW 06:53:41 10° SSE daylight
04 Jun - 17:11:02 10° SE 17:12:01 11° SE 17:13:00 10° ESE daylight
04 Jun - 18:48:55 10° WSW 18:52:31 35° NW 18:55:58 10° NNE visible
05 Jun - 05:11:14 10° N 05:14:44 21° NE 05:18:20 10° ESE visible
05 Jun - 06:51:03 10° WNW 06:55:15 31° SW 06:59:36 10° S daylight
05 Jun - 17:15:16 10° S 17:18:33 24° SE 17:21:42 10° ENE daylight
05 Jun - 18:56:34 10° W 18:58:55 15° NW 19:01:14 10° NNW visible
06 Jun - 05:16:45 10° NNW 05:21:08 42° NE 05:25:45 10° SE visible
06 Jun - 06:58:54 10° W 07:01:46 16° SW 07:04:40 10° SSW daylight
06 Jun - 17:21:04 10° SSW 17:25:01 57° SE 17:28:46 10° NE daylight
07 Jun - 05:22:53 10° NW 05:27:33 89° ENE 05:32:27 10° SE visible
07 Jun - 17:27:29 10° SW 17:31:26 56° NW 17:35:11 10° NNE daylight
